Theta_e
295 291 293 291 297 313 320 324 324 321 329 329 327 337 339 349 353 356 357 358 358 363 362 360 359 359 360 360 361 361 359 358
294 291 298 296 300 318 320 322 326 327 324 332 337 339 340 351 353 353 356 357 362 362 362 361 359 359 360 360 361 361 359 358
289 291 297 299 300 311 318 320 326 328 324 327 334 348 349 349 348 349 353 358 361 362 361 361 359 359 360 360 361 361 359 357
287 292 297 299 300 304 316 325 325 324 319 320 338 344 346 345 345 351 354 359 360 362 361 360 360 360 361 360 360 361 360 358
289 293 295 298 300 321 324 324 323 324 326 332 338 345 347 344 348 351 355 356 358 359 360 360 360 360 360 359 360 360 359 357
291 291 293 298 301 307 318 323 331 334 324 320 335 343 349 346 347 348 352 354 355 357 358 357 356 360 360 359 360 359 359 358
289 291 295 297 299 303 313 329 330 334 335 334 340 334 340 342 342 343 346 349 353 355 355 356 355 357 359 359 359 359 359 358
296 295 295 298 296 300 311 317 327 336 340 339 337 330 338 338 334 338 340 345 350 353 352 354 356 354 353 353 355 354 354 352
299 299 298 298 299 301 306 306 322 331 335 336 333 327 336 339 336 337 338 343 347 349 351 352 352 354 352 352 352 352 351 350
300 301 298 297 300 300 301 301 306 335 338 337 330 326 331 339 336 335 336 339 345 347 348 347 348 351 350 350 350 349 349 348
301 300 298 300 301 301 300 304 310 335 338 335 329 328 333 342 339 336 334 336 339 343 344 342 345 347 348 348 348 347 345 347
299 298 298 299 299 300 303 305 319 327 328 329 328 329 333 328 334 337 336 335 336 338 341 342 344 341 344 342 342 343 343 345
298 298 298 301 297 298 304 305 303 322 326 327 329 330 322 325 327 334 337 336 335 337 339 341 339 338 338 340 341 341 342 341
296 300 300 300 292 301 303 302 303 303 305 307 310 313 313 316 330 339 340 338 337 340 338 341 340 340 337 340 342 340 338 338
295 300 299 298 295 302 302 302 302 302 302 304 305 307 308 313 323 335 342 342 339 337 336 337 340 343 342 340 341 341 337 335
292 298 297 295 295 299 300 300 301 301 302 302 304 306 309 310 315 331 341 343 341 339 337 334 336 339 341 340 339 336 335 332
296 299 295 294 294 298 298 297 298 300 301 301 303 308 307 310 313 319 334 340 341 341 340 337 336 337 338 339 336 332 333 335
295 298 296 295 295 297 298 298 299 299 300 301 302 303 306 306 310 314 322 335 341 342 341 338 337 342 340 340 336 334 333 332
293 297 296 294 293 294 299 300 302 302 301 301 302 303 305 307 307 312 315 324 338 342 341 339 339 332 331 334 332 328 328 328
296 292 288 294 285 291 294 298 299 300 304 304 304 305 303 305 305 310 315 319 334 341 341 341 335 334 335 336 331 329 330 332
Wind_Speed
5 4 3 3 2 3 3 1 5 1 4 1 3 4 6 0 11 14 11 10 9 12 12 14 14 13 13 12 11 12 12 11
6 1 5 6 8 7 6 6 3 1 2 3 0 2 4 14 18 12 12 9 11 15 15 16 14 14 12 12 12 12 12 12
4 3 6 7 4 15 13 5 5 4 5 3 4 8 12 9 12 17 12 9 11 13 14 15 17 15 12 12 11 11 11 11
1 4 7 8 6 8 7 2 5 3 5 4 3 3 10 14 13 10 12 13 12 15 15 15 15 14 13 12 12 13 13 12
2 4 6 4 12 7 7 7 6 6 3 4 5 11 11 11 14 13 12 12 11 12 13 14 13 14 14 13 11 10 10 11
2 3 6 4 10 5 5 7 4 6 5 6 7 7 9 10 12 11 10 8 12 11 11 10 10 15 14 13 11 10 10 9
4 3 6 4 10 6 2 8 3 6 6 4 9 7 6 8 9 8 7 2 7 11 10 10 7 11 14 16 14 12 11 11
7 4 4 8 2 5 4 1 3 3 4 6 8 3 10 9 9 7 9 6 5 10 12 11 9 9 8 9 8 8 8 7
8 8 5 4 6 1 5 4 4 9 8 10 5 4 5 6 13 15 10 9 9 9 10 10 9 6 4 4 4 5 9 8
8 6 5 5 3 2 8 6 6 9 17 12 8 6 7 9 10 9 13 12 12 10 9 7 4 7 6 7 5 5 6 7
10 10 8 5 8 5 3 3 3 9 9 14 9 8 9 9 8 7 11 12 12 11 11 7 6 5 5 6 6 5 5 7
5 5 5 9 5 3 5 7 9 12 14 13 13 15 10 7 7 10 9 13 11 13 12 10 8 7 7 5 4 4 5 6
3 1 2 8 3 6 8 0 9 13 15 14 15 10 14 15 12 14 13 13 13 13 11 11 9 8 6 6 5 6 7 6
5 1 2 4 8 11 9 4 8 9 9 10 10 13 12 9 9 12 10 14 13 12 13 12 10 8 6 6 5 5 5 4
9 4 2 3 7 14 9 10 9 8 8 10 10 10 8 10 14 12 15 14 12 13 14 13 7 5 6 6 4 5 4 4
4 6 3 4 8 11 3 8 11 8 7 8 9 13 12 13 10 13 13 15 17 14 13 11 5 4 3 3 2 2 4 4
8 9 1 5 5 9 6 2 4 7 8 9 12 17 10 10 12 8 8 11 17 17 13 11 6 5 3 5 4 3 4 6
9 11 6 4 6 5 4 3 3 6 8 9 8 9 11 8 9 15 17 16 14 18 15 13 11 9 5 6 3 2 2 4
10 2 3 2 6 4 4 3 6 3 5 5 9 12 12 12 12 12 15 17 17 19 18 17 15 6 4 5 4 1 2 3
3 3 4 3 5 5 3 7 4 10 13 11 11 10 12 12 10 14 21 18 17 17 18 16 13 13 15 12 7 6 6 6
Wind_Direction
88 98 174 226 181 73 38 133 29 42 27 11 109 129 162 256 130 126 126 131 145 149 141 132 133 129 129 129 124 121 122 120
80 165 249 224 174 177 165 316 327 255 297 310 36 309 217 147 140 114 133 130 157 152 144 141 145 144 143 143 140 137 138 136
65 257 275 258 265 186 193 176 158 184 208 248 320 321 110 140 142 139 142 136 151 152 145 148 152 154 157 155 146 139 140 143
156 297 258 283 265 162 168 189 161 175 150 254 263 193 159 147 139 137 142 148 155 155 153 153 157 157 159 161 159 157 155 153
188 256 299 272 325 119 145 152 226 170 99 277 265 193 164 148 134 142 149 160 152 154 154 154 160 161 165 164 165 165 156 155
260 245 272 312 360 118 152 197 102 196 192 214 234 169 147 148 137 141 146 167 155 146 148 158 168 169 169 164 168 172 168 166
244 200 273 329 21 307 85 133 210 195 180 210 105 105 121 114 107 112 126 149 158 153 161 158 170 173 169 175 176 174 172 178
215 225 267 317 28 277 82 256 341 36 352 138 124 167 149 152 126 148 159 148 168 170 166 167 170 183 170 177 181 178 176 179
256 241 275 268 310 209 100 339 224 173 201 172 188 151 171 156 163 179 162 161 166 177 179 175 172 175 173 174 176 189 188 179
269 228 212 235 234 314 138 220 264 211 184 170 185 218 208 179 181 165 172 169 166 172 179 198 155 177 175 184 189 194 202 178
263 279 219 266 244 190 260 191 103 123 179 195 191 224 240 215 184 151 181 172 181 169 182 187 157 166 180 194 188 192 191 188
287 282 230 163 248 132 251 144 129 153 191 205 201 211 214 235 188 186 184 190 169 180 187 184 183 175 190 194 171 190 206 200
269 233 218 173 198 204 235 134 149 181 196 212 212 213 216 219 198 200 199 174 177 182 185 186 191 180 184 194 182 199 212 201
279 29 294 111 271 255 240 235 250 183 191 204 215 202 213 204 185 187 180 184 176 184 188 188 184 181 184 187 183 197 207 198
319 201 217 192 279 272 159 181 224 252 194 219 219 222 216 189 189 186 186 176 167 184 183 185 179 171 169 178 177 208 190 202
255 289 139 285 265 281 253 180 215 240 259 219 224 224 219 202 190 188 193 184 176 175 183 183 150 124 118 125 201 216 211 208
279 270 152 228 257 295 300 113 306 278 270 247 212 226 228 194 197 184 203 200 183 177 184 166 162 157 150 198 194 225 218 220
278 265 175 302 306 304 6 321 254 262 252 264 295 304 283 241 185 183 193 201 186 190 174 181 183 187 169 171 181 199 209 237
223 344 331 19 340 351 327 1 315 284 249 270 258 266 269 251 204 200 189 197 194 193 179 180 182 123 84 78 51 69 223 234
247 103 240 55 273 295 312 311 348 357 22 358 347 324 266 261 234 194 205 195 196 188 182 182 160 169 175 176 170 206 187 207